{"data":{"norad_id":66259,"epoch":"2026-09-20T22:01:54.527808Z","epoch_age_seconds":60541,"freshness":"FRESH","line1":"1 66259U 25245AB  26263.91799222  .00021816  00000+0  71122-3 0  9999","line2":"2 66259  53.1618  95.8833 0001520  59.3352 300.7799 15.31766865 51161","mean_motion":15.31766865,"eccentricity":0.000152,"inclination_deg":53.1618,"raan_deg":95.8833,"arg_perigee_deg":59.3352,"mean_anomaly_deg":300.7799,"bstar":0.00071122,"rev_number":5116,"period_min":94.009084078209,"perigee_km":469.49968238315,"apogee_km":471.5816803983,"semimajor_km":6848.6776813907,"source":"CELESTRAK","updated_at":"2026-09-21T09:00:35.851190Z"}}